SPKEA EPGD-EPSK

Flight info

Callsign SPKEA
Flight time 0h 40m
Altitude 1500
Route DCT EPGDN DCT EPGDM DCT EPGDI DCT 542914N0181317E 543352N0180247E/N0110A025 543307N0174152E 543221N0172045E/N0110A010 DCT EPKSM DCT
Aircraft C172/L-SBDGR/C

Departure

Time 2026-05-05 09:20
Airport Gdańsk Lech Wałęsa Airport (EPGD)

Arrival

Time 2026-05-05 10:00
Airport Słupsk-Krȩpa Airfield (EPSK)
Time Latitude Longitude Altitude Speed Heading
2026-05-05 09:03 54.37291 18.49442 498 ft 0 kts 250°
2026-05-05 09:16 54.37289 18.49437 497 ft 4 kts 253°
2026-05-05 09:17 54.37306 18.49343 493 ft 9 kts 284°
2026-05-05 09:17 54.37271 18.49297 488 ft 10 kts 202°
2026-05-05 09:17 54.37205 18.49244 481 ft 0 kts 213°
2026-05-05 09:17 54.37198 18.49235 480 ft 6 kts 216°
2026-05-05 09:18 54.37147 18.49141 478 ft 11 kts 235°
2026-05-05 09:18 54.37145 18.49097 478 ft 0 kts 291°
2026-05-05 09:19 54.37168 18.49001 477 ft 25 kts 291°
2026-05-05 09:19 54.37289 18.48511 469 ft 65 kts 292°
2026-05-05 09:19 54.37477 18.47706 593 ft 73 kts 294°
2026-05-05 09:19 54.37680 18.46906 754 ft 74 kts 295°
2026-05-05 09:20 54.37882 18.46053 885 ft 78 kts 294°
2026-05-05 09:20 54.38087 18.45181 1026 ft 80 kts 295°
2026-05-05 09:20 54.38284 18.44302 1192 ft 77 kts 292°
2026-05-05 09:20 54.38503 18.43414 1313 ft 79 kts 297°
2026-05-05 09:21 54.38799 18.42701 1334 ft 71 kts 337°
2026-05-05 09:21 54.39264 18.42823 1315 ft 70 kts 28°
2026-05-05 09:21 54.39697 18.43192 1332 ft 67 kts 24°
2026-05-05 09:21 54.40078 18.43652 1307 ft 71 kts 59°
2026-05-05 09:22 54.40005 18.44502 1274 ft 77 kts 116°
2026-05-05 09:22 54.39760 18.45304 1276 ft 75 kts 111°
2026-05-05 09:22 54.39545 18.46099 1286 ft 72 kts 100°
2026-05-05 09:22 54.39698 18.46862 1325 ft 72 kts 44°
2026-05-05 09:23 54.40073 18.47454 1343 ft 74 kts 36°
2026-05-05 09:23 54.40456 18.47943 1384 ft 64 kts 34°
2026-05-05 09:23 54.40807 18.48356 1420 ft 57 kts 29°
2026-05-05 09:23 54.41184 18.48659 1458 ft 62 kts 32°
2026-05-05 09:24 54.41527 18.49259 1443 ft 74 kts 40°
2026-05-05 09:24 54.41961 18.49626 1534 ft 70 kts 31°
2026-05-05 09:24 54.42287 18.50337 1520 ft 78 kts 56°
2026-05-05 09:24 54.42547 18.51171 1524 ft 81 kts 55°
2026-05-05 09:25 54.42836 18.52014 1522 ft 82 kts 55°
2026-05-05 09:25 54.43140 18.52863 1527 ft 83 kts 52°
2026-05-05 09:25 54.43589 18.53423 1528 ft 82 kts 12°
2026-05-05 09:25 54.44163 18.53438 1526 ft 86 kts 341°
2026-05-05 09:26 54.44647 18.52777 1530 ft 92 kts 306°
2026-05-05 09:26 54.44958 18.51797 1526 ft 94 kts 296°
2026-05-05 09:26 54.45142 18.50716 1519 ft 92 kts 284°
2026-05-05 09:26 54.45241 18.49640 1518 ft 90 kts 278°
2026-05-05 09:27 54.45293 18.48583 1521 ft 88 kts 284°
2026-05-05 09:27 54.45486 18.47582 1522 ft 88 kts 296°
2026-05-05 09:27 54.45701 18.46583 1528 ft 90 kts 285°
2026-05-05 09:27 54.45830 18.45510 1533 ft 93 kts 283°
2026-05-05 09:28 54.45887 18.44394 1529 ft 95 kts 272°
2026-05-05 09:28 54.45907 18.43263 1527 ft 94 kts 279°
2026-05-05 09:28 54.46028 18.42145 1526 ft 94 kts 286°
2026-05-05 09:28 54.46170 18.41059 1522 ft 93 kts 285°
2026-05-05 09:29 54.46346 18.39993 1520 ft 92 kts 284°
2026-05-05 09:29 54.46449 18.38902 1521 ft 92 kts 275°
2026-05-05 09:29 54.46482 18.37814 1521 ft 91 kts 279°
2026-05-05 09:29 54.46589 18.36740 1520 ft 90 kts 287°
2026-05-05 09:30 54.46777 18.35710 1525 ft 91 kts 290°
2026-05-05 09:30 54.46961 18.34651 1521 ft 92 kts 288°
2026-05-05 09:30 54.47149 18.33595 1514 ft 92 kts 289°
2026-05-05 09:30 54.47345 18.32564 1523 ft 92 kts 290°
2026-05-05 09:31 54.47549 18.31516 1522 ft 92 kts 291°
2026-05-05 09:31 54.47751 18.30455 1517 ft 92 kts 288°
2026-05-05 09:31 54.47926 18.29405 1515 ft 91 kts 288°
2026-05-05 09:31 54.48108 18.28352 1510 ft 92 kts 291°
2026-05-05 09:32 54.48316 18.27307 1504 ft 92 kts 290°
2026-05-05 09:32 54.48493 18.26269 1513 ft 91 kts 287°
2026-05-05 09:32 54.48627 18.25201 1519 ft 91 kts 280°
2026-05-05 09:32 54.48683 18.24113 1519 ft 92 kts 276°
2026-05-05 09:33 54.48767 18.23028 1518 ft 91 kts 285°
2026-05-05 09:33 54.48962 18.22011 1515 ft 89 kts 303°
2026-05-05 09:33 54.49308 18.21132 1517 ft 89 kts 308°
2026-05-05 09:33 54.49680 18.20279 1512 ft 90 kts 310°
2026-05-05 09:34 54.50074 18.19386 1507 ft 94 kts 308°
2026-05-05 09:34 54.50466 18.18456 1500 ft 96 kts 309°
2026-05-05 09:34 54.50893 18.17558 1494 ft 96 kts 309°
2026-05-05 09:34 54.51254 18.16601 1499 ft 96 kts 304°
2026-05-05 09:35 54.51646 18.15672 1498 ft 95 kts 309°
2026-05-05 09:35 54.52467 18.13879 1488 ft 95 kts 313°
2026-05-05 09:35 54.52910 18.13056 1496 ft 93 kts 311°
2026-05-05 09:36 54.53307 18.12169 1500 ft 93 kts 308°
2026-05-05 09:36 54.53676 18.11245 1490 ft 94 kts 304°
2026-05-05 09:36 54.54054 18.10319 1486 ft 94 kts 307°
2026-05-05 09:36 54.54442 18.09397 1480 ft 94 kts 307°
2026-05-05 09:37 54.54831 18.08512 1487 ft 93 kts 310°
2026-05-05 09:37 54.55250 18.07650 1488 ft 93 kts 310°
2026-05-05 09:37 54.55648 18.06757 1490 ft 94 kts 307°
2026-05-05 09:37 54.56020 18.05819 1489 ft 94 kts 306°
2026-05-05 09:38 54.56366 18.04872 1495 ft 93 kts 303°
2026-05-05 09:38 54.56599 18.03852 1526 ft 90 kts 276°
2026-05-05 09:38 54.56611 18.02779 1656 ft 92 kts 270°
2026-05-05 09:38 54.56572 18.01653 1789 ft 96 kts 266°
2026-05-05 09:39 54.56501 18.00504 1913 ft 98 kts 266°
2026-05-05 09:39 54.56434 17.99323 2032 ft 99 kts 266°
2026-05-05 09:39 54.56363 17.98140 2150 ft 99 kts 267°
2026-05-05 09:39 54.56307 17.96947 2260 ft 101 kts 264°
2026-05-05 09:40 54.56224 17.95725 2347 ft 102 kts 263°
2026-05-05 09:40 54.56180 17.94491 2436 ft 104 kts 270°
2026-05-05 09:40 54.56166 17.93203 2461 ft 111 kts 270°
2026-05-05 09:40 54.56121 17.91857 2460 ft 115 kts 266°
2026-05-05 09:41 54.56059 17.90461 2452 ft 117 kts 267°
2026-05-05 09:41 54.55994 17.89119 2442 ft 110 kts 267°
2026-05-05 09:41 54.55918 17.87838 2444 ft 105 kts 266°
2026-05-05 09:41 54.55853 17.86582 2451 ft 105 kts 267°
2026-05-05 09:42 54.55798 17.85297 2458 ft 110 kts 267°
2026-05-05 09:42 54.55753 17.83978 2455 ft 112 kts 267°
2026-05-05 09:42 54.55735 17.82625 2447 ft 114 kts 269°
2026-05-05 09:42 54.55708 17.81271 2471 ft 113 kts 267°
2026-05-05 09:43 54.55656 17.79913 2497 ft 112 kts 266°
2026-05-05 09:43 54.55584 17.78559 2488 ft 114 kts 266°
2026-05-05 09:43 54.55524 17.77218 2502 ft 112 kts 268°
2026-05-05 09:43 54.55434 17.75895 2516 ft 111 kts 264°
2026-05-05 09:44 54.55347 17.74569 2516 ft 112 kts 268°
2026-05-05 09:44 54.55325 17.73224 2513 ft 113 kts 270°
2026-05-05 09:44 54.55296 17.71859 2543 ft 115 kts 269°
2026-05-05 09:44 54.55236 17.70460 2553 ft 117 kts 267°
2026-05-05 09:45 54.55192 17.69090 2518 ft 111 kts 268°
2026-05-05 09:45 54.55146 17.67799 2543 ft 105 kts 268°
2026-05-05 09:45 54.55096 17.66534 2559 ft 105 kts 267°
2026-05-05 09:45 54.55059 17.65267 2543 ft 106 kts 269°
2026-05-05 09:46 54.55020 17.63994 2550 ft 105 kts 268°
2026-05-05 09:46 54.54992 17.62741 2562 ft 106 kts 269°
2026-05-05 09:46 54.54960 17.61470 2554 ft 107 kts 266°
2026-05-05 09:46 54.54891 17.60188 2542 ft 105 kts 266°
2026-05-05 09:47 54.54840 17.58930 2552 ft 106 kts 268°
2026-05-05 09:47 54.54790 17.57661 2528 ft 106 kts 268°
2026-05-05 09:47 54.54744 17.56403 2556 ft 104 kts 268°
2026-05-05 09:47 54.54729 17.55141 2565 ft 107 kts 270°
2026-05-05 09:48 54.54712 17.53831 2568 ft 109 kts 269°
2026-05-05 09:48 54.54656 17.52535 2560 ft 110 kts 266°
2026-05-05 09:48 54.54575 17.51209 2533 ft 110 kts 266°
2026-05-05 09:48 54.54497 17.49906 2537 ft 109 kts 267°
2026-05-05 09:49 54.54435 17.48598 2548 ft 109 kts 265°
2026-05-05 09:49 54.54359 17.47289 2557 ft 108 kts 267°
2026-05-05 09:49 54.54333 17.45990 2563 ft 109 kts 270°
2026-05-05 09:49 54.54304 17.44685 2565 ft 109 kts 269°
2026-05-05 09:50 54.54284 17.43382 2541 ft 109 kts 270°
2026-05-05 09:50 54.54275 17.42098 2527 ft 105 kts 269°
2026-05-05 09:50 54.54230 17.40850 2556 ft 104 kts 265°
2026-05-05 09:50 54.54150 17.39588 2564 ft 107 kts 266°
2026-05-05 09:51 54.54092 17.38295 2535 ft 108 kts 265°
2026-05-05 09:51 54.54007 17.37018 2534 ft 107 kts 264°
2026-05-05 09:51 54.53903 17.35725 2548 ft 108 kts 263°
2026-05-05 09:51 54.53825 17.34443 2545 ft 109 kts 268°
2026-05-05 09:52 54.53577 17.33256 2534 ft 105 kts 233°
2026-05-05 09:52 54.53141 17.32282 2478 ft 102 kts 231°
2026-05-05 09:52 54.52641 17.31373 2431 ft 105 kts 224°
2026-05-05 09:52 54.52087 17.30530 2322 ft 109 kts 222°
2026-05-05 09:53 54.51493 17.29697 2214 ft 111 kts 216°
2026-05-05 09:53 54.50868 17.28882 2100 ft 113 kts 220°
2026-05-05 09:53 54.50265 17.28007 1986 ft 114 kts 221°
2026-05-05 09:53 54.49668 17.27115 1873 ft 115 kts 221°
2026-05-05 09:54 54.49058 17.26232 1759 ft 112 kts 219°
2026-05-05 09:54 54.48479 17.25401 1648 ft 108 kts 220°
2026-05-05 09:54 54.47917 17.24553 1534 ft 106 kts 224°
2026-05-05 09:54 54.47392 17.23678 1423 ft 105 kts 226°
2026-05-05 09:55 54.46865 17.22822 1311 ft 104 kts 223°
2026-05-05 09:55 54.46320 17.21995 1202 ft 104 kts 222°
2026-05-05 09:55 54.45777 17.21165 1100 ft 103 kts 226°
2026-05-05 09:55 54.45335 17.20227 1080 ft 101 kts 233°
2026-05-05 09:56 54.44912 17.19241 1082 ft 102 kts 235°
2026-05-05 09:56 54.44488 17.18239 1081 ft 104 kts 235°
2026-05-05 09:56 54.44080 17.17220 1080 ft 104 kts 236°
2026-05-05 09:56 54.43660 17.16200 1078 ft 104 kts 237°
2026-05-05 09:57 54.43247 17.15174 1078 ft 104 kts 236°
2026-05-05 09:57 54.42831 17.14146 1080 ft 105 kts 236°
2026-05-05 09:57 54.42405 17.13110 1081 ft 105 kts 236°
2026-05-05 09:57 54.42181 17.12014 1116 ft 97 kts 286°
2026-05-05 09:58 54.42370 17.10900 1096 ft 98 kts 288°
2026-05-05 09:58 54.42556 17.09775 1067 ft 99 kts 289°
2026-05-05 09:58 54.42746 17.08619 1038 ft 100 kts 286°
2026-05-05 09:58 54.42922 17.07451 999 ft 101 kts 280°
2026-05-05 09:59 54.42763 17.06283 915 ft 105 kts 236°
2026-05-05 09:59 54.42156 17.05650 807 ft 111 kts 192°
2026-05-05 09:59 54.41564 17.06022 697 ft 86 kts 120°
2026-05-05 09:59 54.41340 17.06933 586 ft 83 kts 107°
2026-05-05 10:00 54.41183 17.07908 435 ft 84 kts 101°
2026-05-05 10:00 54.41047 17.08830 263 ft 72 kts 103°
2026-05-05 10:00 54.40951 17.09465 252 ft 32 kts 103°
2026-05-05 10:00 54.40935 17.09590 252 ft 6 kts 100°
2026-05-05 10:01 54.40924 17.09720 252 ft 10 kts 53°
2026-05-05 10:01 54.40957 17.09736 252 ft 3 kts
2026-05-05 10:01 54.41015 17.09740 252 ft 9 kts
2026-05-05 10:01 54.41037 17.09707 252 ft 1 kts 276°
2026-05-05 10:02 54.41037 17.09706 252 ft 0 kts 276°